| time (UTC) | temp F | wind direction | speed MPH | gust MPH | rain 1hr in | rain 24hr in | rain mn in | humidity % | barometer mb |
| 20260906132702 | 75 | 52 | 0.0 | 0.0 | 0.00 | 0.00 | 0.00 | 99 | 1015.0 |
| 20260906131659 | 75 | 54 | 0.0 | 0.0 | 0.00 | 0.00 | 0.00 | 99 | 1014.9 |
| 20260906130655 | 75 | 46 | 0.0 | 0.0 | 0.00 | 0.00 | 0.00 | 99 | 1014.8 |
| 20260906125655 | 75 | 46 | 0.0 | 0.0 | 0.00 | 0.00 | 0.00 | 99 | 1014.8 |
| 20260906124649 | 74 | 45 | 0.0 | 0.0 | 0.00 | 0.00 | 0.00 | 99 | 1014.7 |
| 20260906123649 | 74 | 45 | 0.0 | 0.0 | 0.00 | 0.00 | 0.00 | 99 | 1014.6 |
| 20260906122643 | 74 | 45 | 0.0 | 0.0 | 0.00 | 0.00 | 0.00 | 99 | 1014.7 |
| 20260906121641 | 74 | 44 | 0.0 | 0.0 | 0.00 | 0.00 | 0.00 | 99 | 1014.8 |
| 20260906120639 | 74 | 44 | 0.0 | 0.0 | 0.00 | 0.00 | 0.00 | 99 | 1014.5 |
| 20260906115636 | 74 | 44 | 0.0 | 0.0 | 0.00 | 0.00 | 0.00 | 99 | 1014.5 |
| 20260906114631 | 74 | 45 | 0.0 | 0.0 | 0.00 | 0.00 | 0.00 | 99 | 1014.4 |
| 20260906113626 | 74 | 45 | 0.0 | 0.0 | 0.00 | 0.00 | 0.00 | 99 | 1014.2 |
| 20260906112625 | 74 | 45 | 0.0 | 0.0 | 0.00 | 0.00 | 0.00 | 99 | 1013.9 |
| 20260906111621 | 74 | 45 | 0.0 | 0.0 | 0.00 | 0.00 | 0.00 | 99 | 1014.1 |
| 20260906110617 | 74 | 45 | 0.0 | 0.0 | 0.00 | 0.00 | 0.00 | 99 | 1013.9 |
| 20260906105612 | 74 | 44 | 0.0 | 0.0 | 0.00 | 0.00 | 0.00 | 99 | 1013.9 |
| 20260906104607 | 74 | 43 | 0.0 | 0.0 | 0.00 | 0.00 | 0.00 | 99 | 1013.9 |
| 20260906103606 | 74 | 45 | 0.0 | 0.0 | 0.00 | 0.00 | 0.00 | 99 | 1013.6 |
| 20260906102601 | 74 | 45 | 0.0 | 0.0 | 0.00 | 0.00 | 0.00 | 99 | 1013.7 |
| 20260906101556 | 75 | 44 | 0.0 | 0.0 | 0.00 | 0.00 | 0.00 | 99 | 1013.4 |
| 20260906100553 | 75 | 46 | 0.0 | 0.0 | 0.00 | 0.00 | 0.00 | 99 | 1013.5 |
| 20260906095553 | 75 | 47 | 0.0 | 0.0 | 0.00 | 0.00 | 0.00 | 99 | 1013.5 |
| 20260906094553 | 75 | 47 | 0.0 | 0.0 | 0.00 | 0.00 | 0.00 | 99 | 1013.3 |
| 20260906093550 | 75 | 44 | 0.0 | 0.0 | 0.00 | 0.00 | 0.00 | 99 | 1013.3 |
| 20260906092546 | 75 | 45 | 0.0 | 0.0 | 0.00 | 0.00 | 0.00 | 99 | 1013.6 |
| 20260906091542 | 75 | 45 | 0.0 | 0.0 | 0.00 | 0.00 | 0.00 | 99 | 1013.4 |
| 20260906090539 | 75 | 43 | 0.0 | 0.0 | 0.00 | 0.00 | 0.00 | 99 | 1013.6 |
| 20260906085538 | 75 | 46 | 0.0 | 0.0 | 0.00 | 0.00 | 0.00 | 99 | 1013.4 |
| 20260906084539 | 76 | 45 | 0.0 | 0.0 | 0.00 | 0.00 | 0.00 | 99 | 1013.6 |
| 20260906083533 | 76 | 40 | 0.0 | 0.0 | 0.00 | 0.00 | 0.00 | 99 | 1013.5 |
| 20260906082534 | 76 | 43 | 0.0 | 0.0 | 0.00 | 0.00 | 0.00 | 99 | 1013.4 |
| 20260906081531 | 76 | 23 | 2.0 | 2.0 | 0.00 | 0.00 | 0.00 | 99 | 1013.5 |
| 20260906080529 | 76 | 27 | 0.0 | 0.0 | 0.00 | 0.00 | 0.00 | 99 | 1013.6 |
| 20260906075525 | 76 | 46 | 0.0 | 0.0 | 0.00 | 0.00 | 0.00 | 99 | 1013.6 |
| 20260906074521 | 76 | 42 | 0.0 | 0.0 | 0.00 | 0.00 | 0.00 | 99 | 1013.6 |
| 20260906073520 | 76 | 42 | 0.0 | 0.0 | 0.00 | 0.00 | 0.00 | 99 | 1013.7 |
| 20260906072517 | 76 | 34 | 0.0 | 1.0 | 0.00 | 0.00 | 0.00 | 99 | 1013.7 |
| 20260906071515 | 76 | 43 | 0.0 | 0.0 | 0.00 | 0.00 | 0.00 | 99 | 1013.4 |
| 20260906070512 | 77 | 46 | 0.0 | 0.0 | 0.00 | 0.00 | 0.00 | 98 | 1013.5 |
| 20260906065513 | 77 | 46 | 0.0 | 0.0 | 0.00 | 0.00 | 0.00 | 98 | 1013.5 |
| 20260906064510 | 77 | 44 | 0.0 | 0.0 | 0.00 | 0.00 | 0.00 | 98 | 1013.7 |
| 20260906063506 | 76 | 39 | 0.0 | 0.0 | 0.00 | 0.00 | 0.00 | 98 | 1013.4 |
| 20260906062502 | 76 | 43 | 0.0 | 0.0 | 0.00 | 0.00 | 0.00 | 98 | 1013.4 |
| 20260906061459 | 76 | 39 | 0.0 | 0.0 | 0.00 | 0.00 | 0.00 | 98 | 1013.4 |
| 20260906060456 | 76 | 42 | 0.0 | 0.0 | 0.00 | 0.00 | 0.00 | 98 | 1013.3 |
| 20260906055454 | 76 | 47 | 0.0 | 0.0 | 0.00 | 0.00 | 0.00 | 98 | 1013.3 |
| 20260906054449 | 76 | 44 | 0.0 | 0.0 | 0.00 | 0.00 | 0.00 | 98 | 1013.1 |
| 20260906053446 | 76 | 41 | 0.0 | 0.0 | 0.00 | 0.00 | 0.00 | 98 | 1013.3 |
| 20260906052443 | 76 | 45 | 0.0 | 0.0 | 0.00 | 0.00 | 0.00 | 98 | 1013.4 |
| 20260906051441 | 76 | 45 | 0.0 | 0.0 | 0.00 | 0.00 | 0.00 | 98 | 1013.2 |
| 20260906050437 | 76 | 45 | 0.0 | 0.0 | 0.00 | 0.00 | 0.00 | 97 | 1013.3 |
| 20260906045434 | 76 | 45 | 0.0 | 0.0 | 0.00 | 0.07 | 0.07 | 97 | 1013.1 |
| 20260906044431 | 76 | 44 | 0.0 | 0.0 | 0.00 | 0.07 | 0.07 | 97 | 1013.2 |
| 20260906043429 | 76 | 43 | 0.0 | 0.0 | 0.00 | 0.07 | 0.07 | 97 | 1013.4 |
| 20260906042423 | 76 | 47 | 0.0 | 0.0 | 0.00 | 0.07 | 0.07 | 97 | 1013.3 |
| 20260906041420 | 76 | 45 | 0.0 | 0.0 | 0.00 | 0.07 | 0.07 | 97 | 1013.1 |
| 20260906040415 | 76 | 45 | 0.0 | 0.0 | 0.00 | 0.07 | 0.07 | 97 | 1013.0 |
| 20260906035412 | 76 | 43 | 0.0 | 0.0 | 0.00 | 0.07 | 0.07 | 97 | 1013.3 |
| 20260906034408 | 76 | 42 | 0.0 | 0.0 | 0.00 | 0.07 | 0.07 | 98 | 1013.7 |
| 20260906033403 | 76 | 42 | 0.0 | 0.0 | 0.00 | 0.07 | 0.07 | 98 | 1013.6 |
| 20260906032400 | 76 | 45 | 0.0 | 0.0 | 0.00 | 0.07 | 0.07 | 97 | 1013.2 |
| 20260906031356 | 76 | 48 | 0.0 | 0.0 | 0.00 | 0.07 | 0.07 | 97 | 1013.2 |
| 20260906030352 | 76 | 48 | 0.0 | 0.0 | 0.00 | 0.07 | 0.07 | 96 | 1013.2 |
| 20260906025352 | 77 | 48 | 0.0 | 0.0 | 0.00 | 0.07 | 0.07 | 96 | 1013.3 |
| 20260906024350 | 77 | 47 | 0.0 | 0.0 | 0.00 | 0.07 | 0.07 | 96 | 1013.3 |
| 20260906023348 | 77 | 45 | 0.0 | 0.0 | 0.00 | 0.07 | 0.07 | 96 | 1013.2 |
| 20260906022343 | 77 | 46 | 0.0 | 0.0 | 0.00 | 0.07 | 0.07 | 97 | 1013.3 |
| 20260906021338 | 77 | 41 | 0.0 | 0.0 | 0.00 | 0.07 | 0.07 | 97 | 1013.1 |
| 20260906020338 | 77 | 55 | 0.0 | 0.0 | 0.00 | 0.07 | 0.07 | 97 | 1013.1 |
| 20260906015338 | 78 | 27 | 1.0 | 1.0 | 0.00 | 0.07 | 0.07 | 97 | 1013.3 |
| 20260906014333 | 78 | 27 | 2.0 | 4.0 | 0.00 | 0.07 | 0.07 | 97 | 1013.3 |
| 20260906013330 | 78 | 46 | 0.0 | 0.0 | 0.00 | 0.07 | 0.07 | 97 | 1013.1 |
| 20260906012326 | 78 | 61 | 0.0 | 1.0 | 0.00 | 0.07 | 0.07 | 97 | 1013.1 |
| 20260906011321 | 78 | 44 | 0.0 | 0.0 | 0.00 | 0.07 | 0.07 | 97 | 1013.3 |
| 20260906010319 | 78 | 51 | 0.0 | 0.0 | 0.00 | 0.07 | 0.07 | 97 | 1013.5 |
| 20260906005319 | 78 | 48 | 0.0 | 0.0 | 0.00 | 0.07 | 0.07 | 97 | 1013.0 |
| 20260906004318 | 78 | 26 | 0.0 | 0.0 | 0.00 | 0.07 | 0.07 | 96 | 1012.6 |
| 20260906003314 | 79 | 19 | 1.0 | 2.0 | 0.00 | 0.07 | 0.07 | 96 | 1012.9 |
| 20260906002315 | 79 | 43 | 0.0 | 0.0 | 0.00 | 0.07 | 0.07 | 96 | 1013.0 |
| 20260906001312 | 80 | 102 | 2.0 | 3.0 | 0.00 | 0.07 | 0.07 | 95 | 1013.0 |
| 20260906000307 | 80 | 43 | 0.0 | 0.0 | 0.00 | 0.07 | 0.07 | 94 | 1013.0 |
| 20260905235306 | 80 | 48 | 0.0 | 0.0 | 0.00 | 0.07 | 0.07 | 93 | 1013.1 |
| 20260905234259 | 80 | 48 | 0.0 | 0.0 | 0.00 | 0.07 | 0.07 | 92 | 1013.0 |
| 20260905233254 | 80 | 39 | 0.0 | 0.0 | 0.00 | 0.07 | 0.07 | 91 | 1012.9 |
| 20260905232249 | 80 | 47 | 0.0 | 0.0 | 0.00 | 0.07 | 0.07 | 92 | 1013.0 |
| 20260905231245 | 80 | 44 | 0.0 | 0.0 | 0.00 | 0.07 | 0.07 | 94 | 1012.8 |
| 20260905230245 | 80 | 44 | 0.0 | 0.0 | 0.00 | 0.07 | 0.07 | 93 | 1012.9 |
| 20260905225240 | 80 | 40 | 0.0 | 0.0 | 0.00 | 0.07 | 0.07 | 93 | 1012.6 |
| 20260905224235 | 80 | 47 | 0.0 | 0.0 | 0.00 | 0.07 | 0.07 | 93 | 1012.8 |
| 20260905223234 | 80 | 49 | 0.0 | 0.0 | 0.00 | 0.07 | 0.07 | 92 | 1013.0 |
| 20260905222234 | 80 | 41 | 0.0 | 0.0 | 0.00 | 0.07 | 0.07 | 91 | 1012.9 |
| 20260905221233 | 80 | 46 | 0.0 | 0.0 | 0.00 | 0.07 | 0.07 | 92 | 1012.8 |
| 20260905220230 | 79 | 50 | 1.0 | 1.0 | 0.00 | 0.07 | 0.07 | 91 | 1013.0 |
| 20260905215225 | 79 | 51 | 0.0 | 0.0 | 0.00 | 0.07 | 0.07 | 91 | 1013.0 |
| 20260905214222 | 80 | 44 | 0.0 | 0.0 | 0.00 | 0.07 | 0.07 | 89 | 1013.2 |
| 20260905213219 | 80 | 54 | 0.0 | 0.0 | 0.07 | 0.07 | 0.07 | 90 | 1013.1 |
| 20260905212219 | 80 | 47 | 0.0 | 0.0 | 0.00 | 0.06 | 0.06 | 91 | 1012.8 |
| 20260905211215 | 80 | 45 | 0.0 | 0.0 | 0.00 | 0.06 | 0.06 | 91 | 1012.6 |
| 20260905210211 | 79 | 342 | 2.0 | 3.0 | 0.00 | 0.06 | 0.06 | 92 | 1012.6 |
| 20260905205210 | 78 | 24 | 1.0 | 1.0 | 0.00 | 0.06 | 0.06 | 93 | 1013.2 |
| 20260905204206 | 78 | 20 | 3.0 | 4.0 | 0.00 | 0.06 | 0.06 | 93 | 1013.4 |
| 20260905203201 | 78 | 80 | 3.0 | 4.0 | 0.12 | 0.06 | 0.06 | 92 | 1013.6 |
| 20260905202157 | 80 | 342 | 2.0 | 6.0 | 0.00 | 0.04 | 0.04 | 88 | 1013.6 |
| 20260905201153 | 80 | 45 | 2.0 | 3.0 | 0.00 | 0.04 | 0.04 | 89 | 1013.7 |
| 20260905200149 | 82 | 25 | 2.0 | 2.0 | 0.12 | 0.04 | 0.04 | 90 | 1013.1 |
| 20260905195148 | 91 | 47 | 0.0 | 0.0 | 0.19 | 0.03 | 0.03 | 72 | 1012.9 |
| 20260905194143 | 94 | 55 | 0.0 | 0.0 | 0.00 | 0.00 | 0.00 | 55 | 1013.0 |
| 20260905193138 | 95 | 46 | 0.0 | 1.0 | 0.00 | 0.00 | 0.00 | 58 | 1012.9 |
| 20260905192137 | 95 | 36 | 1.0 | 2.0 | 0.00 | 0.00 | 0.00 | 54 | 1012.8 |
| 20260905191134 | 93 | 53 | 0.0 | 0.0 | 0.00 | 0.00 | 0.00 | 57 | 1013.0 |
| 20260905190132 | 93 | 54 | 0.0 | 0.0 | 0.00 | 0.00 | 0.00 | 57 | 1013.2 |
| 20260905185131 | 94 | 102 | 2.0 | 3.0 | 0.00 | 0.00 | 0.00 | 56 | 1013.3 |
| 20260905184130 | 95 | 53 | 0.0 | 0.0 | 0.00 | 0.00 | 0.00 | 57 | 1013.4 |
| 20260905183126 | 93 | 41 | 0.0 | 0.0 | 0.00 | 0.00 | 0.00 | 58 | 1013.6 |
| 20260905182125 | 96 | 36 | 0.0 | 1.0 | 0.00 | 0.00 | 0.00 | 53 | 1013.7 |
| 20260905181124 | 96 | 58 | 2.0 | 2.0 | 0.00 | 0.00 | 0.00 | 53 | 1014.0 |
| 20260905180121 | 94 | 48 | 0.0 | 1.0 | 0.00 | 0.00 | 0.00 | 55 | 1014.0 |
| 20260905175115 | 94 | 56 | 1.0 | 1.0 | 0.00 | 0.00 | 0.00 | 57 | 1014.3 |
| 20260905174112 | 95 | 45 | 0.0 | 0.0 | 0.00 | 0.00 | 0.00 | 56 | 1014.5 |
| 20260905173109 | 94 | 51 | 1.0 | 1.0 | 0.00 | 0.00 | 0.00 | 57 | 1014.5 |
| 20260905172109 | 93 | 48 | 1.0 | 1.0 | 0.00 | 0.00 | 0.00 | 60 | 1014.8 |
| 20260905171108 | 91 | 43 | 0.0 | 0.0 | 0.00 | 0.00 | 0.00 | 62 | 1014.9 |
| 20260905170105 | 93 | 90 | 2.0 | 2.0 | 0.00 | 0.00 | 0.00 | 62 | 1014.9 |
| 20260905165100 | 91 | 7 | 1.0 | 2.0 | 0.00 | 0.00 | 0.00 | 64 | 1015.0 |
| 20260905164055 | 92 | 17 | 1.0 | 2.0 | 0.00 | 0.00 | 0.00 | 64 | 1015.1 |
| 20260905163054 | 91 | 91 | 3.0 | 3.0 | 0.00 | 0.00 | 0.00 | 66 | 1015.4 |
| 20260905162049 | 89 | 56 | 1.0 | 1.0 | 0.00 | 0.00 | 0.00 | 69 | 1015.8 |
| 20260905161046 | 89 | 57 | 1.0 | 1.0 | 0.00 | 0.00 | 0.00 | 71 | 1015.6 |
| 20260905160045 | 90 | 45 | 0.0 | 0.0 | 0.00 | 0.00 | 0.00 | 70 | 1015.4 |
| 20260905155044 | 89 | 57 | 0.0 | 0.0 | 0.00 | 0.00 | 0.00 | 71 | 1015.5 |
| 20260905154040 | 88 | 47 | 0.0 | 0.0 | 0.00 | 0.00 | 0.00 | 73 | 1015.5 |
| 20260905153036 | 87 | 222 | 1.0 | 3.0 | 0.00 | 0.00 | 0.00 | 74 | 1015.5 |
| 20260905152032 | 86 | 42 | 0.0 | 0.0 | 0.00 | 0.00 | 0.00 | 76 | 1015.5 |
| 20260905151028 | 85 | 43 | 0.0 | 1.0 | 0.00 | 0.00 | 0.00 | 79 | 1015.2 |
| 20260905150027 | 86 | 42 | 0.0 | 0.0 | 0.00 | 0.00 | 0.00 | 78 | 1015.2 |
| 20260905145026 | 85 | 2 | 2.0 | 3.0 | 0.00 | 0.00 | 0.00 | 78 | 1015.0 |
| 20260905144026 | 86 | 45 | 0.0 | 0.0 | 0.00 | 0.00 | 0.00 | 78 | 1015.2 |
| 20260905143026 | 84 | 29 | 0.0 | 1.0 | 0.00 | 0.00 | 0.00 | 80 | 1015.4 |
| 20260905142026 | 84 | 48 | 0.0 | 0.0 | 0.00 | 0.00 | 0.00 | 80 | 1015.2 |
| 20260905141023 | 84 | 48 | 0.0 | 0.0 | 0.00 | 0.00 | 0.00 | 79 | 1015.2 |
| 20260905140022 | 83 | 47 | 0.0 | 0.0 | 0.00 | 0.00 | 0.00 | 82 | 1015.2 |
| 20260905135019 | 83 | 40 | 0.0 | 1.0 | 0.00 | 0.00 | 0.00 | 82 | 1015.2 |
| 20260905134018 | 83 | 49 | 0.0 | 0.0 | 0.00 | 0.00 | 0.00 | 81 | 1015.0 |